Weather in Yunda

Russia / Udmurt Republic     57°53′02″N   52°53′52″E
temp.,
°C
wind,
m/s
gust,
m/s
humid.,
%
clouds,
%
prec.,
mm/h
press.,
hPa
HPBL,
m
13 april, tue
tue1301:000se2299100 0.0 104045
04:00+1se2399100 0.0 104093
07:00+1se2399100 0.0 103981
10:00+6s249662 0.0 1038173
13:00+9s358981 0.0 1036312
16:00+11ssw2590100 0.0 1034300
19:00+6ssw229793 0.0 103333
22:00+5s2399100 0.0 103248
14 april, wed
wed1401:00+4wsw2399100 0.0 103260
04:00+4wsw24100100 0.0 103299
07:00+5wsw3497100 0.0 1031178
10:00+9ssw348326 0.0 1031273
13:00+14sw465913 0.0 1029697
16:00+16sw46555 0.0 10271000
19:00+12ssw33745 0.0 102633
22:00+9ssw348325 0.0 102658
15 april, thu
thu1501:00+8ssw348644 0.0 102548
04:00+7ssw239039 0.0 102430
07:00+8ssw36925 0.0 1022151
10:00+13sw46710 0.0 1021528
13:00+16sw566141 0.0 10191294
16:00+15wsw4766100 0.1 1018284
19:00+12w3582100 0.3 101894
22:00+9nne71188100 0.8 1019434
16 april, fri
fri1601:00+5nne51084100 0.1 1021547
04:00+4nne488369 0.1 1023662
07:00+4ne51078100 0.0 1024714
10:00+6ne5754100 0.0 1025964
13:00+8ne56410 0.0 10251362
16:00+9nne453932 0.0 10261630
19:00+6nne34527 0.0 102699
22:00+3nne23645 0.0 102751
17 april, sat
sat1701:00+1nne36695 0.0 1028106
04:000n23705 0.0 102849
07:00+2n25630 0.0 1028166
10:00+6nnw35465 0.0 10281203
13:00+8nw5745100 0.0 10261848
16:00+8nw5845100 0.0 10241882
19:00+6nw4858100 0.1 1023384
22:00+5nw51070100 0.1 1022558